QPF
0.01 0.01 0.01 0.01 0.01 0.01 0.00 0.00 0.00 0.00 0.00 0.01 0.03 0.05 0.05 0.07 0.07 0.07 0.08 0.04 0.03 0.03 0.05 0.04 0.04 0.05 0.03 0.03 0.05 0.09 0.16 0.18 0.18 0.17 0.19 0.20 0.18 0.15 0.17 0.18 0.20 0.32 0.22
0.00 0.01 0.01 0.01 0.01 0.01 0.00 0.00 0.00 0.01 0.01 0.01 0.03 0.04 0.06 0.07 0.07 0.08 0.09 0.05 0.02 0.03 0.05 0.05 0.05 0.04 0.03 0.03 0.04 0.05 0.12 0.17 0.18 0.18 0.15 0.18 0.18 0.13 0.14 0.18 0.20 0.20 0.16
0.00 0.00 0.00 0.01 0.01 0.00 0.00 0.00 0.00 0.01 0.01 0.01 0.03 0.03 0.05 0.06 0.06 0.06 0.08 0.08 0.05 0.03 0.03 0.04 0.06 0.05 0.05 0.04 0.04 0.05 0.10 0.15 0.15 0.23 0.19 0.17 0.16 0.12 0.14 0.18 0.20 0.15 0.12
0.00 0.00 0.00 0.01 0.02 0.01 0.01 0.01 0.01 0.02 0.01 0.02 0.03 0.03 0.04 0.05 0.05 0.07 0.10 0.10 0.09 0.08 0.06 0.04 0.04 0.05 0.06 0.06 0.06 0.09 0.11 0.14 0.14 0.25 0.23 0.14 0.14 0.12 0.14 0.17 0.16 0.13 0.10
0.00 0.00 0.00 0.01 0.02 0.02 0.01 0.01 0.01 0.02 0.02 0.02 0.03 0.04 0.03 0.05 0.04 0.05 0.07 0.08 0.08 0.09 0.09 0.05 0.03 0.04 0.06 0.07 0.06 0.07 0.08 0.14 0.16 0.21 0.21 0.12 0.13 0.12 0.12 0.13 0.10 0.11 0.13
0.00 0.01 0.01 0.01 0.02 0.02 0.02 0.02 0.02 0.02 0.02 0.03 0.03 0.03 0.03 0.03 0.04 0.05 0.05 0.06 0.07 0.08 0.10 0.07 0.05 0.04 0.04 0.06 0.06 0.06 0.07 0.09 0.13 0.18 0.20 0.11 0.09 0.10 0.10 0.11 0.10 0.11 0.12
0.00 0.01 0.01 0.01 0.03 0.03 0.02 0.03 0.04 0.03 0.02 0.02 0.03 0.03 0.03 0.02 0.02 0.03 0.02 0.04 0.05 0.08 0.11 0.10 0.11 0.09 0.04 0.03 0.04 0.05 0.07 0.08 0.10 0.13 0.12 0.07 0.06 0.08 0.09 0.09 0.11 0.13 0.13
0.00 0.00 0.01 0.02 0.02 0.02 0.02 0.03 0.04 0.04 0.03 0.02 0.03 0.04 0.04 0.04 0.03 0.02 0.01 0.03 0.05 0.07 0.09 0.11 0.10 0.09 0.08 0.05 0.02 0.03 0.04 0.07 0.09 0.09 0.09 0.08 0.06 0.06 0.06 0.06 0.07 0.11 0.13
0.00 0.00 0.00 0.01 0.02 0.02 0.02 0.02 0.03 0.05 0.04 0.03 0.03 0.04 0.06 0.06 0.04 0.02 0.02 0.02 0.04 0.06 0.08 0.10 0.11 0.08 0.10 0.10 0.05 0.02 0.02 0.03 0.07 0.09 0.09 0.09 0.08 0.05 0.05 0.04 0.05 0.07 0.09
0.00 0.00 0.00 0.00 0.01 0.01 0.02 0.02 0.02 0.05 0.05 0.03 0.03 0.02 0.03 0.05 0.05 0.04 0.04 0.03 0.05 0.05 0.06 0.08 0.12 0.09 0.09 0.11 0.08 0.04 0.02 0.02 0.05 0.08 0.11 0.10 0.10 0.08 0.06 0.05 0.04 0.04 0.06
0.00 0.00 0.00 0.01 0.01 0.01 0.02 0.03 0.04 0.04 0.05 0.04 0.04 0.04 0.03 0.04 0.04 0.05 0.05 0.04 0.05 0.05 0.05 0.07 0.12 0.10 0.10 0.11 0.12 0.06 0.03 0.01 0.03 0.06 0.11 0.11 0.11 0.11 0.11 0.09 0.06 0.05 0.04
0.00 0.00 0.01 0.02 0.02 0.02 0.02 0.02 0.04 0.03 0.05 0.05 0.05 0.04 0.04 0.05 0.05 0.05 0.06 0.06 0.06 0.06 0.05 0.05 0.07 0.08 0.07 0.09 0.10 0.08 0.04 0.02 0.02 0.04 0.10 0.12 0.11 0.13 0.16 0.15 0.11 0.08 0.06
0.00 0.00 0.00 0.01 0.01 0.01 0.01 0.01 0.03 0.02 0.03 0.04 0.04 0.03 0.03 0.04 0.04 0.04 0.04 0.05 0.06 0.06 0.05 0.04 0.04 0.04 0.04 0.05 0.07 0.05 0.04 0.02 0.01 0.02 0.04 0.06 0.08 0.10 0.17 0.19 0.15 0.11 0.09
0.00 0.00 0.00 0.01 0.01 0.00 0.00 0.01 0.01 0.02 0.02 0.02 0.02 0.02 0.02 0.02 0.03 0.03 0.04 0.06 0.07 0.06 0.06 0.05 0.03 0.03 0.04 0.05 0.06 0.05 0.04 0.01 0.01 0.01 0.01 0.02 0.05 0.07 0.11 0.13 0.13 0.14 0.13
0.00 0.00 0.00 0.00 0.00 0.00 0.00 0.00 0.01 0.01 0.02 0.02 0.02 0.02 0.02 0.03 0.02 0.03 0.04 0.05 0.06 0.06 0.06 0.06 0.04 0.04 0.04 0.05 0.04 0.06 0.06 0.03 0.01 0.01 0.01 0.01 0.03 0.03 0.04 0.07 0.09 0.08 0.09
0.00 0.00 0.00 0.00 0.00 0.00 0.00 0.01 0.01 0.01 0.02 0.03 0.03 0.02 0.02 0.03 0.03 0.03 0.03 0.03 0.04 0.05 0.06 0.05 0.04 0.04 0.04 0.02 0.02 0.04 0.05 0.03 0.01 0.01 0.02 0.02 0.03 0.02 0.02 0.03 0.06 0.05 0.04
0.00 0.00 0.00 0.00 0.00 0.00 0.01 0.01 0.01 0.02 0.02 0.02 0.02 0.01 0.01 0.02 0.03 0.02 0.03 0.03 0.03 0.04 0.04 0.05 0.04 0.04 0.05 0.05 0.04 0.03 0.04 0.04 0.04 0.01 0.01 0.03 0.03 0.02 0.02 0.03 0.04 0.05 0.04
0.00 0.00 0.00 0.00 0.00 0.00 0.01 0.01 0.01 0.01 0.02 0.03 0.03 0.04 0.03 0.03 0.03 0.03 0.03 0.02 0.03 0.03 0.04 0.04 0.04 0.03 0.03 0.06 0.07 0.05 0.04 0.05 0.05 0.02 0.01 0.03 0.04 0.03 0.03 0.03 0.04 0.05 0.04
0.00 0.00 0.00 0.00 0.00 0.00 0.01 0.00 0.01 0.02 0.02 0.02 0.02 0.03 0.03 0.03 0.03 0.03 0.03 0.02 0.02 0.02 0.03 0.04 0.03 0.03 0.04 0.06 0.06 0.06 0.05 0.06 0.05 0.04 0.03 0.03 0.04 0.04 0.04 0.02 0.04 0.07 0.05
0.00 0.00 0.00 0.00 0.00 0.00 0.00 0.00 0.00 0.01 0.01 0.01 0.01 0.01 0.01 0.02 0.03 0.04 0.03 0.02 0.03 0.03 0.03 0.04 0.03 0.03 0.03 0.06 0.07 0.06 0.06 0.06 0.06 0.05 0.05 0.03 0.03 0.04 0.04 0.03 0.04 0.07 0.07
0.00 0.00 0.00 0.00 0.00 0.00 0.00 0.00 0.00 0.01 0.01 0.01 0.01 0.01 0.01 0.01 0.01 0.02 0.01 0.01 0.02 0.02 0.03 0.04 0.03 0.04 0.04 0.05 0.06 0.06 0.07 0.07 0.08 0.08 0.08 0.06 0.05 0.04 0.04 0.03 0.03 0.04 0.06
0.00 0.00 0.00 0.00 0.00 0.00 0.00 0.00 0.00 0.00 0.01 0.01 0.01 0.00 0.00 0.00 0.00 0.00 0.00 0.00 0.01 0.01 0.03 0.04 0.05 0.05 0.04 0.05 0.06 0.06 0.06 0.06 0.07 0.08 0.09 0.07 0.08 0.06 0.04 0.03 0.02 0.02 0.02
0.00 0.00 0.00 0.00 0.00 0.00 0.00 0.00 0.00 0.00 0.00 0.01 0.01 0.00 0.00 0.00 0.00 0.01 0.00 0.00 0.00 0.00 0.01 0.03 0.04 0.04 0.04 0.04 0.05 0.05 0.05 0.05 0.05 0.07 0.08 0.07 0.07 0.06 0.04 0.03 0.04 0.03 0.02
0.00 0.00 0.00 0.00 0.00 0.00 0.00 0.00 0.00 0.00 0.01 0.01 0.00 0.00 0.00 0.01 0.00 0.01 0.02 0.01 0.01 0.00 0.00 0.00 0.02 0.04 0.03 0.03 0.04 0.06 0.06 0.07 0.05 0.05 0.07 0.07 0.07 0.04 0.03 0.03 0.03 0.02 0.02
0.00 0.00 0.00 0.00 0.00 0.00 0.00 0.00 0.00 0.00 0.00 0.00 0.00 0.00 0.01 0.02 0.01 0.01 0.02 0.03 0.03 0.02 0.01 0.01 0.01 0.02 0.03 0.03 0.04 0.07 0.08 0.06 0.04 0.03 0.04 0.05 0.05 0.05 0.06 0.05 0.04 0.03 0.02
0.00 0.00 0.00 0.00 0.00 0.00 0.00 0.00 0.00 0.00 0.00 0.00 0.01 0.01 0.01 0.01 0.01 0.01 0.01 0.03 0.03 0.02 0.01 0.01 0.01 0.01 0.02 0.02 0.02 0.04 0.07 0.07 0.05 0.04 0.04 0.03 0.03 0.04 0.05 0.05 0.05 0.06 0.04
MSLP
1012.27 1012.23 1012.14 1011.98 1011.79 1011.57 1011.34 1011.11 1010.91 1010.73 1010.58 1010.46 1010.38 1010.34 1010.33 1010.37 1010.45 1010.56 1010.69 1010.84 1010.98 1011.12 1011.24 1011.34 1011.44 1011.53 1011.61 1011.71 1011.81 1011.92 1012.04 1012.17 1012.32 1012.49 1012.68 1012.91 1013.16 1013.43 1013.72 1014.02 1014.32 1014.61 1014.90
1012.43 1012.40 1012.31 1012.17 1011.99 1011.77 1011.53 1011.30 1011.08 1010.88 1010.71 1010.58 1010.49 1010.45 1010.45 1010.49 1010.56 1010.66 1010.78 1010.90 1011.01 1011.12 1011.23 1011.34 1011.45 1011.58 1011.73 1011.90 1012.08 1012.28 1012.47 1012.67 1012.87 1013.07 1013.27 1013.48 1013.71 1013.95 1014.20 1014.46 1014.72 1014.99 1015.26
1012.61 1012.58 1012.51 1012.39 1012.23 1012.03 1011.80 1011.57 1011.34 1011.13 1010.96 1010.82 1010.72 1010.68 1010.68 1010.72 1010.78 1010.85 1010.93 1011.01 1011.08 1011.14 1011.21 1011.31 1011.43 1011.60 1011.80 1012.04 1012.31 1012.59 1012.86 1013.12 1013.35 1013.56 1013.75 1013.95 1014.14 1014.34 1014.57 1014.80 1015.05 1015.32 1015.59
1012.78 1012.76 1012.70 1012.61 1012.47 1012.30 1012.10 1011.88 1011.66 1011.45 1011.27 1011.12 1011.03 1010.99 1010.99 1011.03 1011.08 1011.13 1011.16 1011.18 1011.19 1011.20 1011.22 1011.28 1011.40 1011.59 1011.84 1012.15 1012.49 1012.84 1013.18 1013.49 1013.75 1013.97 1014.15 1014.32 1014.48 1014.66 1014.85 1015.08 1015.33 1015.60 1015.90
1012.92 1012.91 1012.87 1012.80 1012.70 1012.56 1012.39 1012.19 1011.97 1011.77 1011.59 1011.46 1011.37 1011.34 1011.36 1011.40 1011.45 1011.47 1011.47 1011.44 1011.38 1011.32 1011.27 1011.28 1011.37 1011.56 1011.83 1012.19 1012.59 1013.01 1013.41 1013.77 1014.06 1014.29 1014.47 1014.61 1014.76 1014.91 1015.09 1015.31 1015.57 1015.85 1016.17
1013.05 1013.03 1012.99 1012.95 1012.88 1012.77 1012.63 1012.45 1012.25 1012.05 1011.89 1011.76 1011.70 1011.69 1011.73 1011.79 1011.84 1011.87 1011.84 1011.76 1011.64 1011.50 1011.38 1011.32 1011.36 1011.52 1011.79 1012.17 1012.61 1013.08 1013.53 1013.93 1014.26 1014.51 1014.69 1014.84 1014.96 1015.10 1015.28 1015.49 1015.76 1016.06 1016.39
1013.16 1013.12 1013.09 1013.06 1013.02 1012.93 1012.81 1012.66 1012.47 1012.29 1012.13 1012.02 1011.98 1012.00 1012.07 1012.16 1012.24 1012.27 1012.23 1012.11 1011.93 1011.72 1011.53 1011.39 1011.36 1011.47 1011.72 1012.08 1012.54 1013.04 1013.53 1013.97 1014.34 1014.61 1014.82 1014.97 1015.10 1015.23 1015.41 1015.63 1015.90 1016.21 1016.54
1013.26 1013.20 1013.16 1013.15 1013.11 1013.05 1012.95 1012.81 1012.64 1012.47 1012.32 1012.22 1012.20 1012.24 1012.35 1012.47 1012.59 1012.63 1012.60 1012.46 1012.24 1011.97 1011.70 1011.49 1011.38 1011.41 1011.61 1011.94 1012.39 1012.89 1013.41 1013.88 1014.28 1014.59 1014.82 1014.99 1015.14 1015.28 1015.46 1015.68 1015.96 1016.27 1016.61
1013.35 1013.27 1013.23 1013.21 1013.19 1013.15 1013.07 1012.94 1012.78 1012.60 1012.46 1012.37 1012.36 1012.42 1012.55 1012.71 1012.84 1012.92 1012.89 1012.76 1012.51 1012.20 1011.87 1011.58 1011.40 1011.35 1011.47 1011.75 1012.16 1012.65 1013.16 1013.65 1014.08 1014.42 1014.69 1014.89 1015.06 1015.22 1015.41 1015.64 1015.91 1016.23 1016.57
1013.41 1013.32 1013.28 1013.27 1013.26 1013.23 1013.17 1013.05 1012.90 1012.73 1012.58 1012.49 1012.47 1012.53 1012.67 1012.84 1012.99 1013.09 1013.08 1012.95 1012.71 1012.38 1012.01 1011.66 1011.41 1011.29 1011.33 1011.54 1011.89 1012.33 1012.82 1013.31 1013.76 1014.13 1014.43 1014.67 1014.87 1015.05 1015.26 1015.49 1015.77 1016.08 1016.42
1013.43 1013.34 1013.30 1013.30 1013.31 1013.30 1013.26 1013.16 1013.01 1012.85 1012.70 1012.59 1012.55 1012.60 1012.72 1012.88 1013.03 1013.14 1013.15 1013.04 1012.81 1012.48 1012.10 1011.72 1011.42 1011.23 1011.20 1011.33 1011.60 1011.99 1012.44 1012.91 1013.35 1013.74 1014.07 1014.34 1014.58 1014.79 1015.01 1015.25 1015.53 1015.84 1016.17
1013.38 1013.29 1013.27 1013.29 1013.32 1013.34 1013.32 1013.24 1013.11 1012.96 1012.80 1012.67 1012.60 1012.62 1012.70 1012.83 1012.97 1013.08 1013.10 1013.01 1012.81 1012.51 1012.14 1011.77 1011.43 1011.20 1011.11 1011.16 1011.35 1011.67 1012.06 1012.49 1012.92 1013.31 1013.66 1013.96 1014.22 1014.46 1014.70 1014.95 1015.23 1015.53 1015.86
1013.24 1013.17 1013.16 1013.20 1013.26 1013.30 1013.32 1013.27 1013.17 1013.03 1012.87 1012.73 1012.64 1012.60 1012.64 1012.72 1012.84 1012.92 1012.95 1012.90 1012.73 1012.48 1012.15 1011.80 1011.48 1011.23 1011.09 1011.07 1011.19 1011.42 1011.74 1012.12 1012.52 1012.90 1013.25 1013.57 1013.86 1014.12 1014.38 1014.63 1014.91 1015.20 1015.51
1013.03 1012.97 1012.97 1013.02 1013.10 1013.17 1013.22 1013.22 1013.16 1013.04 1012.90 1012.75 1012.62 1012.55 1012.54 1012.58 1012.65 1012.72 1012.75 1012.72 1012.61 1012.42 1012.16 1011.86 1011.57 1011.32 1011.15 1011.09 1011.14 1011.29 1011.54 1011.85 1012.20 1012.56 1012.91 1013.23 1013.53 1013.82 1014.08 1014.34 1014.60 1014.88 1015.17
1012.79 1012.72 1012.71 1012.76 1012.84 1012.94 1013.02 1013.06 1013.04 1012.97 1012.84 1012.70 1012.56 1012.46 1012.40 1012.39 1012.42 1012.47 1012.52 1012.52 1012.46 1012.34 1012.16 1011.94 1011.70 1011.47 1011.30 1011.20 1011.20 1011.28 1011.45 1011.70 1011.99 1012.32 1012.65 1012.98 1013.28 1013.58 1013.84 1014.10 1014.35 1014.61 1014.88
1012.57 1012.47 1012.43 1012.46 1012.53 1012.63 1012.73 1012.80 1012.82 1012.78 1012.69 1012.56 1012.43 1012.30 1012.22 1012.17 1012.18 1012.21 1012.26 1012.30 1012.30 1012.26 1012.17 1012.03 1011.85 1011.67 1011.51 1011.40 1011.34 1011.37 1011.47 1011.65 1011.90 1012.18 1012.49 1012.81 1013.12 1013.41 1013.68 1013.93 1014.16 1014.40 1014.63
1012.44 1012.29 1012.20 1012.18 1012.22 1012.29 1012.38 1012.46 1012.51 1012.50 1012.44 1012.34 1012.21 1012.08 1011.98 1011.91 1011.90 1011.93 1011.99 1012.06 1012.12 1012.15 1012.15 1012.09 1011.99 1011.86 1011.72 1011.61 1011.53 1011.51 1011.56 1011.69 1011.88 1012.13 1012.42 1012.72 1013.03 1013.32 1013.59 1013.82 1014.04 1014.24 1014.45
1012.47 1012.25 1012.09 1011.99 1011.96 1011.99 1012.05 1012.11 1012.16 1012.16 1012.12 1012.03 1011.91 1011.79 1011.68 1011.60 1011.58 1011.60 1011.67 1011.78 1011.89 1011.99 1012.05 1012.08 1012.05 1011.98 1011.88 1011.78 1011.69 1011.64 1011.66 1011.73 1011.89 1012.11 1012.37 1012.67 1012.97 1013.26 1013.52 1013.76 1013.96 1014.14 1014.32
1012.67 1012.38 1012.14 1011.96 1011.84 1011.79 1011.79 1011.81 1011.83 1011.81 1011.77 1011.68 1011.57 1011.44 1011.32 1011.23 1011.20 1011.22 1011.30 1011.43 1011.58 1011.73 1011.86 1011.95 1011.98 1011.97 1011.91 1011.83 1011.75 1011.69 1011.68 1011.74 1011.87 1012.07 1012.32 1012.60 1012.91 1013.20 1013.47 1013.70 1013.90 1014.07 1014.24
1013.05 1012.69 1012.37 1012.10 1011.90 1011.76 1011.67 1011.61 1011.57 1011.52 1011.43 1011.33 1011.19 1011.05 1010.92 1010.82 1010.77 1010.78 1010.86 1010.99 1011.16 1011.35 1011.52 1011.66 1011.75 1011.78 1011.77 1011.72 1011.66 1011.61 1011.60 1011.65 1011.77 1011.96 1012.21 1012.50 1012.80 1013.11 1013.39 1013.63 1013.84 1014.03 1014.19
1013.55 1013.14 1012.76 1012.41 1012.12 1011.89 1011.71 1011.56 1011.43 1011.31 1011.17 1011.02 1010.85 1010.67 1010.51 1010.39 1010.31 1010.30 1010.36 1010.48 1010.64 1010.83 1011.03 1011.19 1011.32 1011.39 1011.42 1011.41 1011.38 1011.36 1011.38 1011.44 1011.57 1011.77 1012.03 1012.33 1012.65 1012.97 1013.28 1013.55 1013.78 1013.99 1014.18
1014.08 1013.66 1013.24 1012.85 1012.49 1012.17 1011.90 1011.66 1011.44 1011.23 1011.02 1010.79 1010.57 1010.34 1010.14 1009.97 1009.85 1009.79 1009.81 1009.90 1010.03 1010.20 1010.39 1010.56 1010.71 1010.81 1010.88 1010.91 1010.93 1010.95 1011.00 1011.10 1011.26 1011.48 1011.77 1012.09 1012.43 1012.79 1013.12 1013.44 1013.72 1013.97 1014.20
1014.55 1014.15 1013.73 1013.32 1012.92 1012.55 1012.20 1011.88 1011.57 1011.27 1010.97 1010.68 1010.39 1010.10 1009.84 1009.61 1009.43 1009.31 1009.27 1009.29 1009.36 1009.49 1009.64 1009.79 1009.93 1010.06 1010.16 1010.23 1010.31 1010.39 1010.49 1010.65 1010.85 1011.11 1011.42 1011.78 1012.16 1012.55 1012.93 1013.29 1013.63 1013.93 1014.22
1014.88 1014.52 1014.14 1013.74 1013.34 1012.94 1012.54 1012.16 1011.78 1011.42 1011.05 1010.69 1010.33 1009.98 1009.65 1009.35 1009.09 1008.90 1008.76 1008.69 1008.68 1008.73 1008.82 1008.93 1009.05 1009.18 1009.30 1009.42 1009.55 1009.70 1009.87 1010.09 1010.35 1010.66 1011.02 1011.41 1011.83 1012.26 1012.69 1013.11 1013.50 1013.87 1014.22
1015.02 1014.72 1014.39 1014.03 1013.65 1013.25 1012.85 1012.44 1012.03 1011.61 1011.20 1010.78 1010.37 1009.96 1009.57 1009.19 1008.85 1008.56 1008.32 1008.14 1008.03 1007.97 1007.97 1008.02 1008.10 1008.22 1008.36 1008.52 1008.71 1008.92 1009.17 1009.45 1009.78 1010.15 1010.55 1010.99 1011.45 1011.92 1012.39 1012.85 1013.30 1013.73 1014.14
1014.97 1014.73 1014.46 1014.15 1013.80 1013.43 1013.04 1012.63 1012.22 1011.79 1011.36 1010.92 1010.47 1010.02 1009.57 1009.12 1008.70 1008.30 1007.95 1007.65 1007.41 1007.24 1007.13 1007.10 1007.13 1007.22 1007.36 1007.56 1007.80 1008.08 1008.40 1008.76 1009.15 1009.58 1010.03 1010.51 1011.00 1011.50 1012.01 1012.51 1013.01 1013.49 1013.96
Thickness
5738 5736 5735 5733 5731 5730 5729 5727 5727 5727 5728 5729 5729 5730 5730 5731 5733 5733 5734 5735 5737 5739 5741 5742 5744 5746 5748 5749 5751 5753 5755 5756 5757 5758 5758 5760 5760 5761 5762 5763 5763 5762 5762
5736 5734 5732 5730 5728 5727 5726 5725 5724 5723 5723 5723 5724 5724 5726 5727 5728 5729 5730 5732 5734 5736 5738 5740 5741 5743 5745 5747 5749 5750 5751 5753 5754 5755 5756 5756 5757 5758 5759 5760 5760 5760 5759
5735 5732 5729 5727 5725 5724 5723 5722 5721 5720 5719 5719 5719 5720 5721 5723 5724 5726 5728 5729 5730 5732 5734 5736 5738 5740 5743 5744 5746 5748 5749 5750 5751 5752 5753 5754 5754 5755 5755 5756 5757 5757 5757
5733 5729 5726 5724 5723 5721 5720 5717 5715 5714 5713 5713 5713 5715 5717 5718 5720 5722 5724 5726 5728 5730 5731 5733 5735 5738 5740 5742 5743 5745 5746 5747 5748 5749 5751 5752 5752 5752 5753 5753 5754 5754 5755
5730 5727 5724 5722 5720 5718 5715 5714 5711 5709 5707 5708 5709 5711 5713 5714 5716 5718 5720 5722 5725 5727 5728 5730 5732 5735 5737 5738 5740 5742 5743 5745 5746 5747 5750 5751 5749 5749 5750 5751 5752 5752 5752
5727 5725 5722 5720 5717 5714 5711 5709 5707 5706 5705 5705 5707 5707 5708 5710 5712 5713 5715 5718 5721 5724 5725 5727 5729 5731 5733 5735 5737 5739 5740 5741 5743 5744 5745 5746 5746 5746 5747 5748 5749 5749 5749
5725 5723 5720 5717 5715 5711 5708 5706 5704 5702 5701 5703 5700 5699 5702 5707 5708 5709 5711 5714 5716 5720 5722 5724 5726 5729 5730 5732 5734 5736 5738 5739 5740 5741 5741 5742 5743 5744 5745 5746 5746 5746 5746
5724 5722 5718 5715 5713 5709 5706 5704 5701 5698 5697 5699 5695 5691 5689 5693 5699 5705 5707 5709 5711 5715 5718 5722 5724 5726 5728 5730 5731 5733 5735 5736 5738 5739 5739 5740 5741 5741 5743 5743 5744 5744 5744
5723 5720 5717 5715 5712 5709 5705 5702 5700 5696 5692 5694 5695 5689 5683 5681 5688 5696 5701 5705 5707 5710 5714 5718 5721 5723 5726 5727 5729 5730 5732 5733 5735 5736 5738 5739 5739 5740 5741 5741 5742 5741 5742
5723 5719 5717 5714 5711 5708 5705 5702 5700 5696 5692 5689 5691 5692 5691 5689 5683 5683 5692 5699 5703 5706 5710 5714 5717 5719 5722 5723 5726 5727 5729 5731 5733 5734 5736 5737 5738 5738 5739 5740 5740 5740 5740
5722 5720 5717 5714 5711 5708 5705 5702 5699 5696 5693 5689 5687 5687 5688 5688 5688 5683 5682 5689 5696 5701 5706 5709 5712 5715 5718 5720 5722 5724 5726 5728 5730 5732 5733 5735 5736 5737 5738 5738 5738 5739 5739
5721 5720 5717 5714 5711 5708 5705 5702 5699 5696 5693 5690 5688 5687 5685 5683 5682 5683 5682 5684 5688 5695 5702 5705 5708 5711 5714 5717 5719 5721 5723 5725 5727 5728 5730 5732 5733 5734 5735 5736 5736 5736 5736
5719 5718 5717 5714 5711 5708 5705 5702 5699 5696 5693 5690 5688 5686 5686 5685 5686 5685 5682 5683 5685 5691 5697 5700 5705 5708 5711 5713 5716 5718 5719 5721 5723 5725 5727 5728 5730 5731 5732 5733 5733 5734 5734
5720 5719 5717 5714 5711 5708 5706 5702 5699 5696 5693 5690 5689 5687 5686 5686 5686 5685 5683 5682 5680 5685 5691 5695 5701 5705 5707 5710 5713 5714 5716 5718 5720 5722 5723 5725 5726 5728 5729 5730 5730 5731 5731
5721 5719 5717 5714 5712 5709 5706 5702 5698 5695 5693 5691 5689 5688 5686 5686 5686 5686 5686 5685 5681 5677 5681 5691 5695 5701 5704 5706 5710 5711 5713 5715 5717 5719 5720 5722 5723 5724 5725 5726 5727 5727 5728
5721 5718 5716 5714 5711 5709 5706 5702 5699 5696 5693 5691 5689 5687 5686 5686 5686 5686 5686 5686 5685 5682 5680 5688 5693 5697 5701 5704 5706 5708 5710 5712 5714 5715 5717 5718 5719 5720 5721 5722 5723 5723 5724
5720 5718 5716 5713 5711 5708 5706 5702 5699 5697 5693 5691 5690 5688 5686 5686 5685 5685 5686 5685 5685 5684 5680 5685 5691 5695 5697 5698 5701 5704 5707 5709 5710 5712 5713 5714 5715 5716 5717 5718 5719 5719 5720
5720 5718 5716 5713 5711 5708 5706 5703 5699 5697 5694 5692 5690 5689 5687 5687 5685 5685 5684 5684 5684 5685 5682 5681 5686 5689 5692 5695 5697 5700 5703 5705 5707 5708 5710 5711 5712 5713 5714 5714 5715 5715 5716
5719 5717 5715 5712 5710 5708 5706 5703 5701 5698 5696 5694 5692 5690 5688 5687 5684 5684 5684 5683 5683 5685 5684 5682 5682 5686 5688 5691 5693 5695 5699 5701 5703 5705 5706 5707 5708 5709 5710 5710 5710 5711 5712
5716 5715 5713 5712 5710 5708 5705 5703 5700 5698 5697 5696 5695 5692 5690 5688 5685 5684 5684 5683 5683 5682 5682 5681 5680 5682 5684 5687 5688 5689 5691 5695 5697 5701 5702 5703 5704 5704 5705 5705 5706 5706 5707
5713 5712 5710 5709 5707 5705 5703 5700 5697 5697 5695 5694 5694 5693 5692 5690 5687 5685 5683 5681 5680 5679 5678 5678 5677 5678 5680 5681 5682 5685 5685 5688 5691 5695 5696 5697 5698 5698 5699 5700 5700 5701 5701
5709 5707 5706 5704 5703 5702 5699 5697 5694 5693 5692 5691 5691 5691 5690 5689 5687 5685 5683 5682 5680 5677 5676 5675 5675 5675 5677 5679 5680 5681 5681 5681 5681 5689 5690 5690 5693 5693 5695 5695 5695 5696 5696
5704 5702 5701 5700 5698 5697 5696 5693 5691 5689 5688 5688 5688 5687 5688 5688 5686 5683 5681 5680 5679 5678 5677 5675 5673 5674 5675 5677 5677 5677 5677 5677 5679 5684 5685 5683 5687 5687 5690 5690 5690 5690 5690
5698 5697 5696 5696 5694 5693 5692 5690 5687 5685 5685 5685 5684 5684 5682 5682 5682 5680 5678 5676 5675 5675 5675 5674 5674 5674 5676 5676 5676 5675 5675 5675 5678 5680 5681 5677 5679 5681 5683 5683 5683 5684 5683
5692 5692 5691 5690 5689 5688 5687 5685 5682 5679 5678 5679 5680 5679 5678 5677 5677 5675 5673 5671 5671 5672 5673 5673 5672 5672 5672 5673 5673 5671 5669 5667 5667 5670 5674 5672 5672 5673 5674 5674 5675 5676 5676
5687 5686 5685 5684 5684 5682 5681 5679 5676 5672 5671 5671 5672 5672 5671 5670 5669 5668 5666 5665 5664 5666 5667 5667 5667 5667 5668 5668 5668 5667 5666 5663 5662 5663 5668 5667 5666 5665 5663 5666 5667 5667 5667